TimeCST,TemperatureF,Dew PointF,Humidity,Sea Level PressureIn,VisibilityMPH,Wind Direction,Wind SpeedMPH,Gust SpeedMPH,PrecipitationIn,Events,Conditions,WindDirDegrees,DateUTC
12:15 AM,25.9,21.7,84,29.84,3.0,Calm,Calm,-,N/A,,Clear,0,2012-12-19 06:15:00
12:35 AM,26.6,23.0,86,29.84,3.0,Calm,Calm,-,N/A,,Clear,0,2012-12-19 06:35:00
12:55 AM,26.2,22.3,85,29.84,3.0,Calm,Calm,-,N/A,,Clear,0,2012-12-19 06:55:00
1:15 AM,26.2,22.3,85,29.84,3.0,Calm,Calm,-,N/A,,Clear,0,2012-12-19 07:15:00
1:35 AM,25.3,21.2,84,29.85,4.0,Calm,Calm,-,N/A,,Clear,0,2012-12-19 07:35:00
1:55 AM,26.2,22.3,85,29.86,4.0,Calm,Calm,-,N/A,,Clear,0,2012-12-19 07:55:00
2:15 AM,26.8,22.8,85,29.86,4.0,Calm,Calm,-,N/A,,Clear,0,2012-12-19 08:15:00
2:35 AM,27.1,23.0,84,29.88,4.0,Calm,Calm,-,N/A,,Clear,0,2012-12-19 08:35:00
2:55 AM,27.9,24.1,86,29.88,4.0,South,3.5,-,N/A,,Scattered Clouds,180,2012-12-19 08:55:00
3:15 AM,28.6,24.6,85,29.89,4.0,SSW,3.5,-,N/A,,Mostly Cloudy,200,2012-12-19 09:15:00
3:35 AM,28.2,23.9,84,29.89,4.0,Calm,Calm,-,N/A,,Mostly Cloudy,0,2012-12-19 09:35:00
3:55 AM,27.9,23.7,84,29.90,4.0,Calm,Calm,-,N/A,,Scattered Clouds,0,2012-12-19 09:55:00
4:15 AM,28.0,23.9,84,29.89,4.0,Calm,Calm,-,N/A,,Scattered Clouds,0,2012-12-19 10:15:00
4:35 AM,27.3,23.0,84,29.90,4.0,Calm,Calm,-,N/A,,Scattered Clouds,0,2012-12-19 10:35:00
4:55 AM,27.7,23.7,85,29.90,4.0,Calm,Calm,-,N/A,,Clear,0,2012-12-19 10:55:00
5:15 AM,28.0,23.9,84,29.90,4.0,Calm,Calm,-,N/A,,Scattered Clouds,0,2012-12-19 11:15:00
5:35 AM,27.9,23.9,85,29.90,4.0,Calm,Calm,-,N/A,,Mostly Cloudy,0,2012-12-19 11:35:00
6:15 AM,28.8,24.6,84,29.89,4.0,Calm,Calm,-,N/A,,Haze,0,2012-12-19 12:15:00
6:35 AM,28.2,23.9,84,29.89,4.0,Calm,Calm,-,N/A,,Scattered Clouds,0,2012-12-19 12:35:00
6:55 AM,28.4,24.4,85,29.89,4.0,Calm,Calm,-,N/A,,Scattered Clouds,0,2012-12-19 12:55:00
7:15 AM,28.4,24.3,84,29.90,4.0,Calm,Calm,-,N/A,,Scattered Clouds,0,2012-12-19 13:15:00
7:35 AM,27.5,23.2,84,29.90,4.0,Calm,Calm,-,N/A,,Scattered Clouds,0,2012-12-19 13:35:00
7:55 AM,28.2,23.9,84,29.90,4.0,Calm,Calm,-,N/A,,Scattered Clouds,0,2012-12-19 13:55:00
8:15 AM,28.4,24.4,85,29.92,3.0,Calm,Calm,-,N/A,,Scattered Clouds,0,2012-12-19 14:15:00
8:35 AM,28.9,24.8,84,29.92,3.0,Calm,Calm,-,N/A,,Scattered Clouds,0,2012-12-19 14:35:00
8:55 AM,30.0,25.7,84,29.93,4.0,Calm,Calm,-,N/A,,Scattered Clouds,0,2012-12-19 14:55:00
9:15 AM,30.9,26.4,83,29.94,4.0,Calm,Calm,-,N/A,,Haze,0,2012-12-19 15:15:00
9:35 AM,32.0,28.0,85,29.94,4.0,Calm,Calm,-,N/A,,Clear,0,2012-12-19 15:35:00
9:55 AM,32.9,29.3,87,29.95,4.0,Calm,Calm,-,N/A,,Scattered Clouds,0,2012-12-19 15:55:00
10:15 AM,34.2,29.8,84,29.95,5.0,Calm,Calm,-,N/A,,Mostly Cloudy,0,2012-12-19 16:15:00
10:35 AM,34.9,30.6,84,29.95,5.0,Calm,Calm,-,N/A,,Haze,0,2012-12-19 16:35:00
10:55 AM,39.2,30.0,70,29.93,10.0,East,5.8,-,N/A,,Clear,100,2012-12-19 16:55:00
11:15 AM,40.1,28.9,64,29.94,10.0,ESE,5.8,-,N/A,,Clear,110,2012-12-19 17:15:00
11:35 AM,39.4,27.9,63,29.94,10.0,East,5.8,-,N/A,,Mostly Cloudy,100,2012-12-19 17:35:00
11:55 AM,40.5,28.6,63,29.93,10.0,East,5.8,-,N/A,,Overcast,100,2012-12-19 17:55:00
12:15 PM,41.0,27.5,59,29.92,10.0,ENE,6.9,-,N/A,,Overcast,70,2012-12-19 18:15:00
12:35 PM,41.2,27.7,59,29.91,10.0,ENE,4.6,-,N/A,,Overcast,70,2012-12-19 18:35:00
12:55 PM,41.9,28.2,58,29.90,10.0,ENE,5.8,-,N/A,,Overcast,70,2012-12-19 18:55:00
1:15 PM,41.9,28.8,60,29.89,10.0,East,8.1,-,N/A,,Overcast,80,2012-12-19 19:15:00
1:35 PM,41.9,29.3,61,29.89,10.0,East,8.1,-,N/A,,Overcast,80,2012-12-19 19:35:00
1:55 PM,41.9,28.9,60,29.89,10.0,NE,9.2,-,N/A,,Overcast,50,2012-12-19 19:55:00
2:15 PM,41.9,29.1,61,29.87,10.0,NE,11.5,-,N/A,,Overcast,50,2012-12-19 20:15:00
2:35 PM,41.4,29.3,62,29.86,10.0,NE,9.2,-,N/A,,Mostly Cloudy,50,2012-12-19 20:35:00
2:55 PM,41.0,28.6,61,29.86,10.0,ENE,9.2,-,N/A,,Mostly Cloudy,60,2012-12-19 20:55:00
3:15 PM,41.2,29.7,64,29.87,10.0,ENE,5.8,-,N/A,,Overcast,60,2012-12-19 21:15:00
3:35 PM,41.0,29.7,64,29.87,10.0,ENE,5.8,-,N/A,,Overcast,70,2012-12-19 21:35:00
3:55 PM,40.3,30.0,67,29.87,10.0,ENE,5.8,-,N/A,,Overcast,70,2012-12-19 21:55:00
4:15 PM,39.0,30.7,72,29.88,7.0,East,9.2,-,N/A,,Overcast,80,2012-12-19 22:15:00
4:35 PM,38.3,30.4,73,29.88,5.0,NE,9.2,-,N/A,,Haze,50,2012-12-19 22:35:00
4:55 PM,38.3,30.7,74,29.88,7.0,NNE,8.1,-,N/A,,Overcast,30,2012-12-19 22:55:00
5:15 PM,37.9,30.9,76,29.88,7.0,NNE,8.1,-,N/A,,Overcast,20,2012-12-19 23:15:00
5:35 PM,37.9,30.7,75,29.90,7.0,NNE,8.1,-,N/A,,Overcast,20,2012-12-19 23:35:00
5:55 PM,37.2,30.2,76,29.91,7.0,NNE,11.5,-,N/A,,Overcast,20,2012-12-19 23:55:00
6:15 PM,36.7,30.2,77,29.91,7.0,NNE,10.4,16.1,N/A,,Overcast,20,2012-12-20 00:15:00
6:35 PM,36.5,30.2,78,29.91,5.0,NNE,9.2,-,N/A,,Haze,30,2012-12-20 00:35:00
6:55 PM,36.5,30.4,78,29.92,4.0,NNE,11.5,-,N/A,Snow,Light Snow,30,2012-12-20 00:55:00
7:15 PM,35.2,29.8,81,29.92,2.5,NNE,10.4,-,N/A,Snow,Light Snow,20,2012-12-20 01:15:00
7:35 PM,34.3,29.3,82,29.91,2.0,NNE,12.7,-,N/A,Snow,Light Snow,20,2012-12-20 01:35:00
7:55 PM,34.0,28.9,82,29.90,2.5,NNE,10.4,18.4,N/A,Snow,Light Snow,20,2012-12-20 01:55:00
8:15 PM,33.8,28.4,81,29.88,3.0,North,16.1,24.2,N/A,Snow,Light Snow,10,2012-12-20 02:15:00
8:35 PM,32.9,24.6,72,29.88,2.0,NNE,18.4,34.5,N/A,Snow,Light Snow,20,2012-12-20 02:35:00
8:55 PM,32.0,25.7,78,29.90,1.0,North,11.5,25.3,N/A,Snow,Snow,10,2012-12-20 02:55:00
9:15 PM,31.1,26.1,82,29.91,1.0,North,12.7,24.2,N/A,Snow,Snow,10,2012-12-20 03:15:00
9:35 PM,30.7,25.5,81,29.90,1.8,North,17.3,20.7,N/A,Snow,Light Snow,10,2012-12-20 03:35:00
9:55 PM,30.7,25.3,80,29.89,1.5,North,16.1,23.0,N/A,Snow,Light Snow,10,2012-12-20 03:55:00
10:15 PM,30.4,25.5,82,29.89,0.8,North,15.0,28.8,N/A,Snow,Snow,10,2012-12-20 04:15:00
10:35 PM,29.8,24.8,81,29.89,1.8,North,15.0,18.4,N/A,Snow,Light Snow,10,2012-12-20 04:35:00
10:55 PM,28.9,23.7,81,29.89,1.5,North,16.1,21.9,N/A,Snow,Light Snow,10,2012-12-20 04:55:00
11:15 PM,28.4,23.5,82,29.89,1.5,North,12.7,20.7,N/A,Snow,Light Snow,10,2012-12-20 05:15:00
11:35 PM,28.0,23.0,81,29.89,1.5,North,13.8,18.4,N/A,Snow,Snow,360,2012-12-20 05:35:00
11:55 PM,27.3,22.6,83,29.89,-9999.0,North,12.7,23.0,N/A,,Overcast,360,2012-12-20 05:55:00